Location: Newark
(41.8083°N, 72.2500°W)
Time: 00:58:21
(UTC+00:00)

Vanguard 2 Rocket - All Passes

Search period start: 07 December 2021 00:00
Search period end: 17 December 2021 00:00
Orbit: 555 x 3324 km, 32.9° (Epoch: 06 December)

Date Brightness Start Highest point End Pass type
(mag) Time Alt. Az. Time Alt. Az. Time Alt. Az.
07 Dec - 00:16:13 10° WSW 00:22:35 46° S 00:33:34 10° ESE visible
07 Dec - 02:28:29 10° W 02:36:48 37° SSW 02:50:11 10° SE visible
07 Dec - 04:43:40 10° WSW 04:51:58 20° SSW 05:02:42 10° S night (unlit)
07 Dec - 21:07:07 10° SSW 21:10:33 20° SSE 21:15:02 10° ESE daylight
07 Dec - 23:17:22 10° WSW 23:22:46 42° S 23:31:43 10° ESE visible
08 Dec - 01:29:08 10° WSW 01:36:21 40° S 01:48:27 10° SE visible
08 Dec - 03:42:51 10° WSW 03:51:06 24° SSW 04:02:42 10° SSE night (unlit)
08 Dec - 20:09:57 10° SSE 20:11:27 11° SSE 20:13:04 10° SE daylight
08 Dec - 22:18:41 10° SW 22:23:14 35° SSE 22:30:12 10° ESE visible
09 Dec - 00:30:02 10° WSW 00:36:14 41° S 00:46:40 10° ESE visible
09 Dec - 02:42:48 10° WSW 02:50:26 28° SSW 03:01:57 10° SSE visible
09 Dec - 05:01:49 10° SW 05:05:31 11° SSW 05:09:36 10° SSW night (unlit)
09 Dec - 21:20:11 10° SW 21:23:55 26° SSE 21:29:01 10° ESE daylight
09 Dec - 23:31:07 10° WSW 23:36:23 40° S 23:45:04 10° ESE visible
10 Dec - 01:43:15 10° WSW 01:50:02 31° SSW 02:00:46 10° SE visible
10 Dec - 03:58:43 10° WSW 04:04:43 15° SSW 04:12:14 10° S night (unlit)
10 Dec - 20:21:58 10° SSW 20:24:45 17° SSE 20:28:01 10° ESE daylight
10 Dec - 22:32:18 10° WSW 22:36:49 36° S 22:43:44 10° ESE visible
11 Dec - 00:44:01 10° WSW 00:49:55 34° S 00:59:26 10° SE visible
11 Dec - 02:57:49 10° WSW 03:04:07 19° SSW 03:12:43 10° SSE visible
11 Dec - 19:25:07 10° SSE 19:25:35 10° SSE 19:26:04 10° SE daylight
11 Dec - 21:33:35 10° SW 21:37:25 30° SSE 21:42:45 10° ESE daylight
11 Dec - 23:44:59 10° WSW 23:50:04 34° S 23:58:08 10° SE visible
12 Dec - 01:57:48 10° WSW 02:03:46 22° SSW 02:12:22 10° SSE visible
12 Dec - 20:34:58 10° SW 20:38:11 22° SSE 20:42:06 10° ESE daylight
12 Dec - 22:46:04 10° WSW 22:50:27 34° S 22:57:04 10° ESE visible
13 Dec - 00:58:16 10° WSW 01:03:39 25° SSW 01:11:39 10° SE visible
13 Dec - 03:15:17 10° SW 03:17:50 11° SSW 03:20:41 10° SSW night (unlit)
13 Dec - 19:36:32 10° SSW 19:39:00 16° SSE 19:41:37 10° ESE daylight
13 Dec - 21:47:12 10° WSW 21:51:02 31° S 21:56:18 10° ESE visible
13 Dec - 23:59:03 10° WSW 00:03:47 27° S 00:10:51 10° SE visible
14 Dec - 02:13:27 10° SW 02:17:30 14° SSW 02:22:33 10° S visible
14 Dec - 18:38:51 10° S 18:39:44 11° SSE 18:40:38 10° SE daylight
14 Dec - 20:48:22 10° SW 20:51:45 26° S 20:55:52 10° ESE daylight
14 Dec - 23:00:00 10° WSW 23:04:08 28° S 23:10:08 10° SE visible
15 Dec - 01:13:11 10° SW 01:17:24 17° SSW 01:22:58 10° SSE visible
15 Dec - 19:49:29 10° SW 19:52:31 21° SSE 19:55:45 10° ESE daylight
15 Dec - 22:01:00 10° WSW 22:04:41 28° S 22:09:39 10° SE visible
16 Dec - 00:13:31 10° WSW 00:17:31 19° SSW 00:22:55 10° SSE visible
16 Dec - 18:50:37 10° SSW 18:53:16 16° SSE 18:55:49 10° SE daylight
16 Dec - 21:01:59 10° WSW 21:05:22 26° S 21:09:27 10° ESE daylight
16 Dec - 23:14:12 10° WSW 23:17:50 20° SSW 23:22:45 10° SE visible
